Location: *
(45.5224°N, 122.7471°W)
Time: 02:33:34
(UTC+00:00)

Cosmos 1943 - Pass Details

Date: 09 April 2020
Orbit: 832 x 851 km, 71.0° (Epoch: 24 May)

Event Time Altitude Azimuth Distance (km) Brightness Sun altitude
Rises 12:44:12 0° 331° (NNW) 3,427 6.3 -9.4°
Reaches altitude 10° 12:46:40 10° 329° (NNW) 2,488 5.5 -9.0°
Maximum altitude 12:52:19 66° 249° (WSW) 930 3.2 -8.0°
Drops below altitude 10° 12:57:56 10° 168° (SSE) 2,468 5.6 -7.1°
Sets 13:00:23 0° 165° (SSE) 3,398 6.3 -6.7°
